KJ4UBX-11 Weather Reports


time (UTC)temp
F
wind
direction
speed
knots
gust
knots
rain 1hr
in
rain 24hr
in
rain mn
in
humidity
%
barometer
mb
20260508025345 54 0.0 0.0 0.00 0.00 0.00 39 1005.9
20260508024402 55 0.0 0.0 0.00 0.00 0.00 39 1005.9
20260508023420 55 0.0 0.0 0.00 0.00 0.00 39 1005.8
20260508022437 56 0.0 0.0 0.00 0.00 0.00 39 1005.6
20260508021455 56 0.0 0.0 0.00 0.00 0.00 37 1005.6
20260508020512 56 0.0 0.0 0.00 0.00 0.00 37 1005.6
20260508015529 57 0.0 0.0 0.00 0.00 0.00 38 1005.4
20260508014547 57 0.0 0.0 0.00 0.00 0.00 37 1005.3
20260508013603 58 0.0 0.0 0.00 0.00 0.00 35 1005.3
20260508012621 58 0.0 0.0 0.00 0.00 0.00 36 1005.0
20260508011638 59 0.0 0.0 0.00 0.00 0.00 35 1005.0
20260508010656 59 0.0 0.0 0.00 0.00 0.00 36 1004.9
20260508005712 60 0.0 0.0 0.00 0.00 0.00 34 1004.9
20260508004731 60 0.0 0.0 0.00 0.00 0.00 33 1004.7
20260508003745 60 0.0 0.0 0.00 0.00 0.00 35 1004.5
20260508002803 61 0.0 0.0 0.00 0.00 0.00 33 1004.2
20260508001820 62 0.0 0.0 0.00 0.00 0.00 34 1004.0
20260508000838 62 0.0 0.0 0.00 0.00 0.00 32 1003.9
20260507235855 63 0.0 0.0 0.00 0.00 0.00 30 1003.7
20260507234912 64 0.0 0.0 0.00 0.00 0.00 30 1003.7
20260507233930 64 0.0 0.0 0.00 0.00 0.00 29 1003.6
20260507232947 65 0.0 0.0 0.00 0.00 0.00 30 1003.5
20260507232005 66 0.0 0.0 0.00 0.00 0.00 29 1003.5
20260507231022 66 0.0 0.0 0.00 0.00 0.00 29 1003.2
20260507230038 66 0.0 0.0 0.00 0.00 0.00 33 1003.1
20260507225055 66 0.0 0.0 0.00 0.00 0.00 29 1002.9
20260507224114 68 0.0 0.0 0.00 0.00 0.00 28 1002.8
20260507223132 69 0.0 0.0 0.00 0.00 0.00 28 1002.7
20260507222149 69 0.0 0.0 0.00 0.00 0.00 29 1002.6
20260507221206 70 0.0 0.0 0.00 0.00 0.00 40 1002.5
20260507220224 70 0.0 0.0 0.00 0.00 0.00 37 1002.5
20260507215241 71 0.0 0.0 0.00 0.00 0.00 39 1002.4
20260507214259 71 0.0 0.0 0.00 0.00 0.00 32 1002.6
20260507213316 71 0.0 0.0 0.00 0.00 0.00 29 1002.5
20260507212332 71 0.0 0.0 0.00 0.00 0.00 35 1002.5
20260507211350 72 0.0 0.0 0.00 0.00 0.00 35 1002.5
20260507210406 71 0.0 0.0 0.00 0.00 0.00 26 1002.4
20260507205422 72 0.0 0.0 0.00 0.00 0.00 33 1002.3
20260507204441 72 0.0 0.0 0.00 0.00 0.00 33 1002.3
20260507203457 73 0.0 0.0 0.00 0.00 0.00 28 1002.4
20260507202513 72 0.0 0.0 0.00 0.00 0.00 28 1002.4
20260507201530 72 0.0 0.0 0.00 0.00 0.00 26 1002.3
20260507200547 73 0.0 0.0 0.00 0.00 0.00 28 1002.3
20260507195604 73 0.0 0.0 0.00 0.00 0.00 32 1002.3
20260507194621 73 0.0 0.0 0.00 0.00 0.00 30 1002.3
20260507193637 73 0.0 0.0 0.00 0.00 0.00 27 1002.3
20260507192654 73 0.0 0.0 0.00 0.00 0.00 37 1002.5
20260507191710 74 0.0 0.0 0.00 0.00 0.00 32 1002.6
20260507190727 73 0.0 0.0 0.00 0.00 0.00 34 1002.6
20260507185744 74 0.0 0.0 0.00 0.00 0.00 32 1002.6
20260507184801 75 0.0 0.0 0.00 0.00 0.00 39 1002.6
20260507183817 74 0.0 0.0 0.00 0.00 0.00 33 1002.5
20260507182833 74 0.0 0.0 0.00 0.00 0.00 35 1002.6
20260507181852 75 0.0 0.0 0.00 0.00 0.00 34 1002.5
20260507180906 73 0.0 0.0 0.00 0.00 0.00 39 1002.6
20260507175925 73 0.0 0.0 0.00 0.00 0.00 32 1002.8
20260507174941 74 0.0 0.0 0.00 0.00 0.00 37 1002.9
20260507173958 74 0.0 0.0 0.00 0.00 0.00 35 1002.9
20260507173010 71 0.0 0.0 0.00 0.00 0.00 41 1003.0
20260507172026 70 0.0 0.0 0.00 0.00 0.00 45 1003.2
20260507171046 70 0.0 0.0 0.00 0.00 0.00 47 1003.3
20260507170103 72 0.0 0.0 0.00 0.00 0.00 43 1003.4
20260507165120 71 0.0 0.0 0.00 0.00 0.00 45 1003.6
20260507164138 71 0.0 0.0 0.00 0.00 0.00 42 1003.6
20260507163158 73 0.0 0.0 0.00 0.00 0.00 40 1003.6
20260507162214 76 0.0 0.0 0.00 0.00 0.00 43 1003.8
20260507161232 76 0.0 0.0 0.00 0.00 0.00 41 1003.9
20260507160253 77 0.0 0.0 0.00 0.00 0.00 37 1003.9
20260507155313 84 0.0 0.0 0.00 0.00 0.00 31 1004.2
20260507154344 96 0.0 0.0 0.00 0.00 0.00 22 1004.1
20260507153404 98 0.0 0.0 0.00 0.00 0.00 20 1004.3
20260507152422 105 0.0 0.0 0.00 0.00 0.00 19 1004.3
20260507151439 102 0.0 0.0 0.00 0.00 0.00 18 1004.3
20260507150457 101 0.0 0.0 0.00 0.00 0.00 19 1004.3
20260507145508 99 0.0 0.0 0.00 0.00 0.00 19 1004.3
20260507144525 101 0.0 0.0 0.00 0.00 0.00 19 1004.4
20260507143542 103 0.0 0.0 0.00 0.00 0.00 18 1004.4
20260507142557 101 0.0 0.0 0.00 0.00 0.00 19 1004.7
20260507141619 103 0.0 0.0 0.00 0.00 0.00 19 1004.9
20260507140631 98 0.0 0.0 0.00 0.00 0.00 20 1004.9
20260507135647 99 0.0 0.0 0.00 0.00 0.00 19 1004.8
20260507134703 98 0.0 0.0 0.00 0.00 0.00 20 1005.0
20260507133721 96 0.0 0.0 0.00 0.00 0.00 20 1005.0
20260507132735 96 0.0 0.0 0.00 0.00 0.00 22 1005.0
20260507131757 96 0.0 0.0 0.00 0.00 0.00 23 1005.0
20260507130808 93 0.0 0.0 0.00 0.00 0.00 22 1005.0
20260507125824 93 0.0 0.0 0.00 0.00 0.00 27 1005.0
20260507124833 86 0.0 0.0 0.00 0.00 0.00 28 1005.2
20260507123848 82 0.0 0.0 0.00 0.00 0.00 30 1005.3
20260507122904 83 0.0 0.0 0.00 0.00 0.00 32 1005.2
20260507121912 81 0.0 0.0 0.00 0.00 0.00 32 1005.1
20260507120922 74 0.0 0.0 0.00 0.00 0.00 40 1005.0
20260507115931 63 0.0 0.0 0.00 0.00 0.00 50 1005.3
20260507114947 64 0.0 0.0 0.00 0.00 0.00 55 1005.3
20260507114000 60 0.0 0.0 0.00 0.00 0.00 61 1005.2
20260507113016 58 0.0 0.0 0.00 0.00 0.00 64 1005.1
20260507112034 59 0.0 0.0 0.00 0.00 0.00 64 1005.4
20260507111049 58 0.0 0.0 0.00 0.00 0.00 68 1005.5
20260507110105 58 0.0 0.0 0.00 0.00 0.00 68 1005.8
20260507105120 57 0.0 0.0 0.00 0.00 0.00 75 1005.4
20260507104137 57 0.0 0.0 0.00 0.00 0.00 76 1005.8
20260507103154 56 0.0 0.0 0.00 0.00 0.00 77 1005.7
20260507102210 56 0.0 0.0 0.00 0.00 0.00 75 1005.9
20260507101226 55 0.0 0.0 0.00 0.00 0.00 74 1005.5
20260507100243 55 0.0 0.0 0.00 0.00 0.00 73 1005.7
20260507095300 55 0.0 0.0 0.00 0.00 0.00 74 1005.5
20260507094317 55 0.0 0.0 0.00 0.00 0.00 73 1005.1
20260507093334 55 0.0 0.0 0.00 0.00 0.00 71 1005.4
20260507092351 55 0.0 0.0 0.00 0.00 0.00 73 1004.5
20260507091408 55 0.0 0.0 0.00 0.00 0.00 72 1004.7
20260507090426 56 0.0 0.0 0.00 0.00 0.00 71 1005.1
20260507085443 56 0.0 0.0 0.00 0.00 0.00 70 1005.1
20260507084500 56 0.0 0.0 0.00 0.00 0.00 71 1005.2
20260507083518 57 0.0 0.0 0.00 0.00 0.00 72 1005.1
20260507082534 57 0.0 0.0 0.00 0.00 0.00 69 1004.7
20260507081553 59 0.0 0.0 0.00 0.00 0.00 67 1004.4
20260507080608 57 0.0 0.0 0.00 0.00 0.00 77 1005.1
20260507075626 57 0.0 0.0 0.00 0.00 0.00 77 1004.5
20260507074642 57 0.0 0.0 0.00 0.00 0.00 83 1004.6
20260507073659 57 0.0 0.0 0.00 0.00 0.00 83 1004.6
20260507072715 57 0.0 0.0 0.00 0.00 0.00 86 1004.5
20260507071732 57 0.0 0.0 0.00 0.00 0.00 86 1004.3
20260507070749 57 0.0 0.0 0.00 0.00 0.00 84 1004.2
20260507065806 58 0.0 0.0 0.00 0.00 0.00 84 1004.2
20260507064824 58 0.0 0.0 0.00 0.00 0.00 86 1004.2
20260507063840 58 0.0 0.0 0.00 0.00 0.00 87 1003.9
20260507062858 58 0.0 0.0 0.00 0.00 0.00 85 1004.0
20260507061914 58 0.0 0.0 0.00 0.00 0.00 88 1003.7
20260507060931 58 0.0 0.0 0.00 0.00 0.00 85 1003.5
20260507055949 58 0.0 0.0 0.00 0.00 0.00 87 1003.8
20260507055006 59 0.0 0.0 0.00 0.00 0.00 82 1003.5
20260507054022 59 0.0 0.0 0.00 0.00 0.00 83 1003.5
20260507053039 59 0.0 0.0 0.00 0.00 0.00 88 1003.7
20260507052056 59 0.0 0.0 0.00 0.00 0.00 88 1003.7
20260507051113 60 0.0 0.0 0.00 0.00 0.00 83 1003.4
20260507050131 60 0.0 0.0 0.00 0.00 0.00 92 1003.6
20260507045148 60 0.0 0.0 0.00 0.00 0.00 95 1003.3
20260507044204 60 0.0 0.0 0.00 0.00 0.00 92 1003.1
20260507043222 61 0.0 0.0 0.00 0.00 0.00 94 1003.2
20260507042237 60 0.0 0.0 0.00 0.00 0.00 100 1003.4
20260507041255 59 0.0 0.0 0.00 0.00 0.00 99 1003.2
20260507040312 60 0.0 0.0 0.00 0.00 0.00 99 1002.9
20260507035329 60 0.0 0.0 0.00 0.00 0.00 99 1002.7
20260507034345 60 0.0 0.0 0.00 0.00 0.00 99 1002.5
20260507033402 60 0.0 0.0 0.00 0.00 0.00 99 1002.6
20260507032419 60 0.0 0.0 0.00 0.00 0.00 99 1002.5
20260507031435 60 0.0 0.0 0.00 0.00 0.00 99 1002.5
20260507030451 59 0.0 0.0 0.00 0.00 0.00 100 1002.6